Year,Month,Day,Hour,Minute,Value (Times are PST for temperature in C)
2012,10,02,00,00,10.90
2012,10,02,00,01,10.90
2012,10,02,00,02,10.90
2012,10,02,00,03,10.90
2012,10,02,00,04,10.90
2012,10,02,00,05,10.90
2012,10,02,00,06,10.90
2012,10,02,00,07,10.90
2012,10,02,00,08,10.90
2012,10,02,00,09,10.90
2012,10,02,00,10,10.90
2012,10,02,00,11,10.90
2012,10,02,00,12,10.90
2012,10,02,00,13,10.90
2012,10,02,00,14,10.90
2012,10,02,00,15,10.90
2012,10,02,00,16,10.90
2012,10,02,00,17,10.90
2012,10,02,00,18,10.90
2012,10,02,00,19,10.90
2012,10,02,00,20,10.90
2012,10,02,00,21,10.80
2012,10,02,00,22,10.80
2012,10,02,00,23,10.80
2012,10,02,00,24,10.70
2012,10,02,00,25,10.70
2012,10,02,00,26,10.60
2012,10,02,00,27,10.60
2012,10,02,00,28,10.60
2012,10,02,00,29,10.60
2012,10,02,00,30,10.60
2012,10,02,00,31,10.60
2012,10,02,00,32,10.60
2012,10,02,00,33,10.60
2012,10,02,00,34,10.60
2012,10,02,00,35,10.60
2012,10,02,00,36,10.60
2012,10,02,00,37,10.60
2012,10,02,00,38,10.50
2012,10,02,00,39,10.50
2012,10,02,00,40,10.40
2012,10,02,00,41,10.40
2012,10,02,00,42,10.40
2012,10,02,00,43,10.40
2012,10,02,00,44,10.40
2012,10,02,00,45,10.40
2012,10,02,00,46,10.40
2012,10,02,00,47,10.40
2012,10,02,00,48,10.40
2012,10,02,00,49,10.40
2012,10,02,00,50,10.40
2012,10,02,00,51,10.40
2012,10,02,00,52,10.30
2012,10,02,00,53,10.30
2012,10,02,00,54,10.20
2012,10,02,00,55,10.20
2012,10,02,00,56,10.20
2012,10,02,00,57,10.20
2012,10,02,00,58,10.20
2012,10,02,00,59,10.20
2012,10,02,01,00,10.20
2012,10,02,01,01,10.20
2012,10,02,01,02,10.10
2012,10,02,01,03,10.10
2012,10,02,01,04,10.10
2012,10,02,01,05,10.10
2012,10,02,01,06,10.10
2012,10,02,01,07,10.10
2012,10,02,01,08,10.10
2012,10,02,01,09,10.00
2012,10,02,01,10,9.90
2012,10,02,01,11,9.90
2012,10,02,01,12,9.90
2012,10,02,01,13,9.90
2012,10,02,01,14,9.90
2012,10,02,01,15,9.90
2012,10,02,01,16,9.90
2012,10,02,01,17,9.90
2012,10,02,01,18,9.90
2012,10,02,01,19,9.90
2012,10,02,01,20,9.90
2012,10,02,01,21,9.90
2012,10,02,01,22,9.90
2012,10,02,01,23,9.90
2012,10,02,01,24,9.90
2012,10,02,01,25,9.90
2012,10,02,01,26,9.90
2012,10,02,01,27,9.80
2012,10,02,01,28,9.80
2012,10,02,01,29,9.80
2012,10,02,01,30,9.80
2012,10,02,01,31,9.80
2012,10,02,01,32,9.80
2012,10,02,01,33,9.80
2012,10,02,01,34,9.80
2012,10,02,01,35,9.80
2012,10,02,01,36,9.80
2012,10,02,01,37,9.80
2012,10,02,01,38,9.80
2012,10,02,01,39,9.70
2012,10,02,01,40,9.70
2012,10,02,01,41,9.70
2012,10,02,01,42,9.70
2012,10,02,01,43,9.70
2012,10,02,01,44,9.70
2012,10,02,01,45,9.70
2012,10,02,01,46,9.70
2012,10,02,01,47,9.70
2012,10,02,01,48,9.70
2012,10,02,01,49,9.70
2012,10,02,01,50,9.70
2012,10,02,01,51,9.70
2012,10,02,01,52,9.60
2012,10,02,01,53,9.60
2012,10,02,01,54,9.60
2012,10,02,01,55,9.60
2012,10,02,01,56,9.60
2012,10,02,01,57,9.50
2012,10,02,01,58,9.50
2012,10,02,01,59,9.40
2012,10,02,02,00,9.50
2012,10,02,02,01,9.50
2012,10,02,02,02,9.50
2012,10,02,02,03,9.50
2012,10,02,02,04,9.50
2012,10,02,02,05,9.50
2012,10,02,02,06,9.50
2012,10,02,02,07,9.50
2012,10,02,02,08,9.60
2012,10,02,02,09,9.60
2012,10,02,02,10,9.60
2012,10,02,02,11,9.60
2012,10,02,02,12,9.60
2012,10,02,02,13,9.60
2012,10,02,02,14,9.60
2012,10,02,02,15,9.60
2012,10,02,02,16,9.60
2012,10,02,02,17,9.60
2012,10,02,02,18,9.50
2012,10,02,02,19,9.50
2012,10,02,02,20,9.50
2012,10,02,02,21,9.50
2012,10,02,02,22,9.40
2012,10,02,02,23,9.40
2012,10,02,02,24,9.40
2012,10,02,02,25,9.30
2012,10,02,02,26,9.30
2012,10,02,02,27,9.30
2012,10,02,02,28,9.30
2012,10,02,02,29,9.30
2012,10,02,02,30,9.30
2012,10,02,02,31,9.30
2012,10,02,02,32,9.30
2012,10,02,02,33,9.30
2012,10,02,02,34,9.30
2012,10,02,02,35,9.30
2012,10,02,02,36,9.30
2012,10,02,02,37,9.30
2012,10,02,02,38,9.30
2012,10,02,02,39,9.30
2012,10,02,02,40,9.30
2012,10,02,02,41,9.30
2012,10,02,02,42,9.20
2012,10,02,02,43,9.20
2012,10,02,02,44,9.20
2012,10,02,02,45,9.20
2012,10,02,02,46,9.20
2012,10,02,02,47,9.20
2012,10,02,02,48,9.20
2012,10,02,02,49,9.20
2012,10,02,02,50,9.20
2012,10,02,02,51,9.20
2012,10,02,02,52,9.20
2012,10,02,02,53,9.20
2012,10,02,02,54,9.20
2012,10,02,02,55,9.20
2012,10,02,02,56,9.10
2012,10,02,02,57,9.10
2012,10,02,02,58,9.10
2012,10,02,02,59,9.10
2012,10,02,03,00,9.00
2012,10,02,03,01,9.00
2012,10,02,03,02,9.00
2012,10,02,03,03,8.90
2012,10,02,03,04,8.90
2012,10,02,03,05,8.90
2012,10,02,03,06,8.90
2012,10,02,03,07,8.80
2012,10,02,03,08,8.90
2012,10,02,03,09,8.90
2012,10,02,03,10,8.90
2012,10,02,03,11,8.90
2012,10,02,03,12,8.80
2012,10,02,03,13,8.80
2012,10,02,03,14,8.80
2012,10,02,03,15,8.80
2012,10,02,03,16,8.80
2012,10,02,03,17,8.70
2012,10,02,03,18,8.70
2012,10,02,03,19,8.70
2012,10,02,03,20,8.70
2012,10,02,03,21,8.60
2012,10,02,03,22,8.60
2012,10,02,03,23,8.60
2012,10,02,03,24,8.60
2012,10,02,03,25,8.50
2012,10,02,03,26,8.50
2012,10,02,03,27,8.50
2012,10,02,03,28,8.50
2012,10,02,03,29,8.50
2012,10,02,03,30,8.50
2012,10,02,03,31,8.50
2012,10,02,03,32,8.50
2012,10,02,03,33,8.50
2012,10,02,03,34,8.50
2012,10,02,03,35,8.50
2012,10,02,03,36,8.50
2012,10,02,03,37,8.60
2012,10,02,03,38,8.60
2012,10,02,03,39,8.60
2012,10,02,03,40,8.70
2012,10,02,03,41,8.70
2012,10,02,03,42,8.70
2012,10,02,03,43,8.70
2012,10,02,03,44,8.70
2012,10,02,03,45,8.70
2012,10,02,03,46,8.80
2012,10,02,03,47,8.80
2012,10,02,03,48,8.90
2012,10,02,03,49,8.90
2012,10,02,03,50,8.90
2012,10,02,03,51,8.90
2012,10,02,03,52,9.00
2012,10,02,03,53,9.00
2012,10,02,03,54,9.10
2012,10,02,03,55,9.10
2012,10,02,03,56,9.10
2012,10,02,03,57,9.10
2012,10,02,03,58,9.10
2012,10,02,03,59,9.10
2012,10,02,04,00,9.10
2012,10,02,04,01,9.10
2012,10,02,04,02,9.20
2012,10,02,04,03,9.20
2012,10,02,04,04,9.20
2012,10,02,04,05,9.30
2012,10,02,04,06,9.30
2012,10,02,04,07,9.30
2012,10,02,04,08,9.30
2012,10,02,04,09,9.20
2012,10,02,04,10,9.20
2012,10,02,04,11,9.20
2012,10,02,04,12,9.30
2012,10,02,04,13,9.30
2012,10,02,04,14,9.40
2012,10,02,04,15,9.40
2012,10,02,04,16,9.50
2012,10,02,04,17,9.50
2012,10,02,04,18,9.50
2012,10,02,04,19,9.50
2012,10,02,04,20,9.50
2012,10,02,04,21,9.50
2012,10,02,04,22,9.50
2012,10,02,04,23,9.40
2012,10,02,04,24,9.20
2012,10,02,04,25,9.00
2012,10,02,04,26,8.80
2012,10,02,04,27,8.60
2012,10,02,04,28,8.50
2012,10,02,04,29,8.40
2012,10,02,04,30,8.30
2012,10,02,04,31,8.30
2012,10,02,04,32,8.30
2012,10,02,04,33,8.40
2012,10,02,04,34,8.40
2012,10,02,04,35,8.50
2012,10,02,04,36,8.50
2012,10,02,04,37,8.50
2012,10,02,04,38,8.40
2012,10,02,04,39,8.30
2012,10,02,04,40,8.20
2012,10,02,04,41,8.10
2012,10,02,04,42,8.00
2012,10,02,04,43,8.00
2012,10,02,04,44,8.00
2012,10,02,04,45,8.00
2012,10,02,04,46,8.00
2012,10,02,04,47,7.90
2012,10,02,04,48,7.90
2012,10,02,04,49,7.90
2012,10,02,04,50,7.90
2012,10,02,04,51,7.90
2012,10,02,04,52,8.00
2012,10,02,04,53,8.00
2012,10,02,04,54,8.00
2012,10,02,04,55,7.90
2012,10,02,04,56,7.90
2012,10,02,04,57,8.00
2012,10,02,04,58,8.00
2012,10,02,04,59,8.00
2012,10,02,05,00,8.00
2012,10,02,05,01,8.00
2012,10,02,05,02,8.00
2012,10,02,05,03,8.00
2012,10,02,05,04,7.90
2012,10,02,05,05,7.90
2012,10,02,05,06,7.90
2012,10,02,05,07,7.90
2012,10,02,05,08,7.90
2012,10,02,05,09,7.90
2012,10,02,05,10,8.00
2012,10,02,05,11,8.00
2012,10,02,05,12,7.90
2012,10,02,05,13,7.90
2012,10,02,05,14,7.90
2012,10,02,05,15,7.80
2012,10,02,05,16,7.80
2012,10,02,05,17,7.80
2012,10,02,05,18,7.80
2012,10,02,05,19,7.80
2012,10,02,05,20,7.80
2012,10,02,05,21,7.80
2012,10,02,05,22,7.80
2012,10,02,05,23,7.80
2012,10,02,05,24,7.80
2012,10,02,05,25,7.80
2012,10,02,05,26,7.80
2012,10,02,05,27,7.80
2012,10,02,05,28,7.90
2012,10,02,05,29,7.90
2012,10,02,05,30,7.90
2012,10,02,05,31,8.00
2012,10,02,05,32,8.00
2012,10,02,05,33,8.00
2012,10,02,05,34,8.10
2012,10,02,05,35,8.10
2012,10,02,05,36,8.10
2012,10,02,05,37,8.20
2012,10,02,05,38,8.20
2012,10,02,05,39,8.20
2012,10,02,05,40,8.20
2012,10,02,05,41,8.20
2012,10,02,05,42,8.20
2012,10,02,05,43,8.20
2012,10,02,05,44,8.30
2012,10,02,05,45,8.30
2012,10,02,05,46,8.30
2012,10,02,05,47,8.30
2012,10,02,05,48,8.40
2012,10,02,05,49,8.40
2012,10,02,05,50,8.40
2012,10,02,05,51,8.50
2012,10,02,05,52,8.50
2012,10,02,05,53,8.40
2012,10,02,05,54,8.40
2012,10,02,05,55,8.30
2012,10,02,05,56,8.30
2012,10,02,05,57,8.30
2012,10,02,05,58,8.30
2012,10,02,05,59,8.30
2012,10,02,06,00,8.30
2012,10,02,06,01,8.20
2012,10,02,06,02,8.20
2012,10,02,06,03,8.20
2012,10,02,06,04,8.20
2012,10,02,06,05,8.20
2012,10,02,06,06,8.20
2012,10,02,06,07,8.20
2012,10,02,06,08,8.20
2012,10,02,06,09,8.20
2012,10,02,06,10,8.20
2012,10,02,06,11,8.20
2012,10,02,06,12,8.20
2012,10,02,06,13,8.20
2012,10,02,06,14,8.20
2012,10,02,06,15,8.20
2012,10,02,06,16,8.20
2012,10,02,06,17,8.20
2012,10,02,06,18,8.20
2012,10,02,06,19,8.30
2012,10,02,06,20,8.30
2012,10,02,06,21,8.30
2012,10,02,06,22,8.30
2012,10,02,06,23,8.30
2012,10,02,06,24,8.30
2012,10,02,06,25,8.30
2012,10,02,06,26,8.30
2012,10,02,06,27,8.30
2012,10,02,06,28,8.20
2012,10,02,06,29,8.20
2012,10,02,06,30,8.20
2012,10,02,06,31,8.10
2012,10,02,06,32,8.10
2012,10,02,06,33,8.00
2012,10,02,06,34,8.00
2012,10,02,06,35,7.90
2012,10,02,06,36,7.90
2012,10,02,06,37,7.90
2012,10,02,06,38,7.80
2012,10,02,06,39,7.80
2012,10,02,06,40,7.70
2012,10,02,06,41,7.60
2012,10,02,06,42,7.60
2012,10,02,06,43,7.50
2012,10,02,06,44,7.40
2012,10,02,06,45,7.30
2012,10,02,06,46,7.30
2012,10,02,06,47,7.30
2012,10,02,06,48,7.20
2012,10,02,06,49,7.20
2012,10,02,06,50,7.20
2012,10,02,06,51,7.20
2012,10,02,06,52,7.20
2012,10,02,06,53,7.20
2012,10,02,06,54,7.20
2012,10,02,06,55,7.20
2012,10,02,06,56,7.20
2012,10,02,06,57,7.10
2012,10,02,06,58,7.10
2012,10,02,06,59,7.00
2012,10,02,07,00,7.00
2012,10,02,07,01,7.00
2012,10,02,07,02,7.00
2012,10,02,07,03,7.10
2012,10,02,07,04,7.10
2012,10,02,07,05,7.10
2012,10,02,07,06,7.00
2012,10,02,07,07,6.90
2012,10,02,07,08,6.90
2012,10,02,07,09,6.80
2012,10,02,07,10,6.80
2012,10,02,07,11,6.80
2012,10,02,07,12,6.80
2012,10,02,07,13,6.70
2012,10,02,07,14,6.70
2012,10,02,07,15,6.70
2012,10,02,07,16,6.60
2012,10,02,07,17,6.60
2012,10,02,07,18,6.60
2012,10,02,07,19,6.60
2012,10,02,07,20,6.60
2012,10,02,07,21,6.60
2012,10,02,07,22,6.60
2012,10,02,07,23,6.60
2012,10,02,07,24,6.60
2012,10,02,07,25,6.60
2012,10,02,07,26,6.60
2012,10,02,07,27,6.60
2012,10,02,07,28,6.60
2012,10,02,07,29,6.70
2012,10,02,07,30,6.70
2012,10,02,07,31,6.70
2012,10,02,07,32,6.70
2012,10,02,07,33,6.70
2012,10,02,07,34,6.70
2012,10,02,07,35,6.70
2012,10,02,07,36,6.70
2012,10,02,07,37,6.70
2012,10,02,07,38,6.70
2012,10,02,07,39,6.70
2012,10,02,07,40,6.80
2012,10,02,07,41,6.80
2012,10,02,07,42,6.90
2012,10,02,07,43,6.90
2012,10,02,07,44,7.00
2012,10,02,07,45,7.00
2012,10,02,07,46,7.00
2012,10,02,07,47,7.00
2012,10,02,07,48,7.00
2012,10,02,07,49,7.10
2012,10,02,07,50,7.10
2012,10,02,07,51,7.10
2012,10,02,07,52,7.20
2012,10,02,07,53,7.20
2012,10,02,07,54,7.30
2012,10,02,07,55,7.30
2012,10,02,07,56,7.30
2012,10,02,07,57,7.30
2012,10,02,07,58,7.40
2012,10,02,07,59,7.40
2012,10,02,08,00,7.50
2012,10,02,08,01,7.50
2012,10,02,08,02,7.50
2012,10,02,08,03,7.60
2012,10,02,08,04,7.60
2012,10,02,08,05,7.70
2012,10,02,08,06,7.70
2012,10,02,08,07,7.80
2012,10,02,08,08,7.80
2012,10,02,08,09,7.80
2012,10,02,08,10,7.90
2012,10,02,08,11,7.90
2012,10,02,08,12,8.00
2012,10,02,08,13,8.10
2012,10,02,08,14,8.10
2012,10,02,08,15,8.20
2012,10,02,08,16,8.20
2012,10,02,08,17,8.20
2012,10,02,08,18,8.20
2012,10,02,08,19,8.20
2012,10,02,08,20,8.20
2012,10,02,08,21,8.30
2012,10,02,08,22,8.30
2012,10,02,08,23,8.30
2012,10,02,08,24,8.30
2012,10,02,08,25,8.30
2012,10,02,08,26,8.30
2012,10,02,08,27,8.30
2012,10,02,08,28,8.30
2012,10,02,08,29,8.40
2012,10,02,08,30,8.40
2012,10,02,08,31,8.50
2012,10,02,08,32,8.50
2012,10,02,08,33,8.50
2012,10,02,08,34,8.60
2012,10,02,08,35,8.60
2012,10,02,08,36,8.70
2012,10,02,08,37,8.70
2012,10,02,08,38,8.70
2012,10,02,08,39,8.80
2012,10,02,08,40,8.80
2012,10,02,08,41,8.90
2012,10,02,08,42,8.90
2012,10,02,08,43,8.90
2012,10,02,08,44,8.90
2012,10,02,08,45,8.90
2012,10,02,08,46,8.90
2012,10,02,08,47,9.00
2012,10,02,08,48,9.00
2012,10,02,08,49,9.10
2012,10,02,08,50,9.10
2012,10,02,08,51,9.10
2012,10,02,08,52,9.10
2012,10,02,08,53,9.10
2012,10,02,08,54,9.20
2012,10,02,08,55,9.20
2012,10,02,08,56,9.20
2012,10,02,08,57,9.20
2012,10,02,08,58,9.30
2012,10,02,08,59,9.30
2012,10,02,09,00,9.30
2012,10,02,09,01,9.40
2012,10,02,09,02,9.40
2012,10,02,09,03,9.40
2012,10,02,09,04,9.50
2012,10,02,09,05,9.50
2012,10,02,09,06,9.60
2012,10,02,09,07,9.60
2012,10,02,09,08,9.60
2012,10,02,09,09,9.60
2012,10,02,09,10,9.70
2012,10,02,09,11,9.70
2012,10,02,09,12,9.70
2012,10,02,09,13,9.70
2012,10,02,09,14,9.80
2012,10,02,09,15,9.80
2012,10,02,09,16,9.90
2012,10,02,09,17,9.90
2012,10,02,09,18,9.90
2012,10,02,09,19,9.90
2012,10,02,09,20,9.90
2012,10,02,09,21,9.90
2012,10,02,09,22,9.90
2012,10,02,09,23,9.90
2012,10,02,09,24,10.00
2012,10,02,09,25,10.10
2012,10,02,09,26,10.10
2012,10,02,09,27,10.10
2012,10,02,09,28,10.10
2012,10,02,09,29,10.00
2012,10,02,09,30,9.90
2012,10,02,09,31,9.90
2012,10,02,09,32,10.00
2012,10,02,09,33,10.10
2012,10,02,09,34,10.00
2012,10,02,09,35,9.90
2012,10,02,09,36,9.90
2012,10,02,09,37,9.90
2012,10,02,09,38,9.90
2012,10,02,09,39,9.80
2012,10,02,09,40,9.80
2012,10,02,09,41,9.80
2012,10,02,09,42,9.80
2012,10,02,09,43,9.80
2012,10,02,09,44,9.80
2012,10,02,09,45,9.70
2012,10,02,09,46,9.70
2012,10,02,09,47,9.80
2012,10,02,09,48,9.80
2012,10,02,09,49,9.80
2012,10,02,09,50,9.80
2012,10,02,09,51,9.90
2012,10,02,09,52,9.90
2012,10,02,09,53,9.90
2012,10,02,09,54,9.90
2012,10,02,09,55,9.90
2012,10,02,09,56,9.90
2012,10,02,09,57,9.90
2012,10,02,09,58,9.90
2012,10,02,09,59,9.90
2012,10,02,10,00,10.00
2012,10,02,10,01,10.10
2012,10,02,10,02,10.10
2012,10,02,10,03,10.10
2012,10,02,10,04,10.10
2012,10,02,10,05,10.10
2012,10,02,10,06,10.10
2012,10,02,10,07,10.10
2012,10,02,10,08,10.10
2012,10,02,10,09,10.10
2012,10,02,10,10,10.10
2012,10,02,10,11,10.10
2012,10,02,10,12,10.10
2012,10,02,10,13,10.20
2012,10,02,10,14,10.20
2012,10,02,10,15,10.20
2012,10,02,10,16,10.30
2012,10,02,10,17,10.30
2012,10,02,10,18,10.40
2012,10,02,10,19,10.50
2012,10,02,10,20,10.60
2012,10,02,10,21,10.60
2012,10,02,10,22,10.60
2012,10,02,10,23,10.60
2012,10,02,10,24,10.60
2012,10,02,10,25,10.60
2012,10,02,10,26,10.60
2012,10,02,10,27,10.70
2012,10,02,10,28,10.60
2012,10,02,10,29,10.60
2012,10,02,10,30,10.60
2012,10,02,10,31,10.60
2012,10,02,10,32,10.60
2012,10,02,10,33,10.60
2012,10,02,10,34,10.70
2012,10,02,10,35,10.70
2012,10,02,10,36,10.70
2012,10,02,10,37,10.70
2012,10,02,10,38,10.70
2012,10,02,10,39,10.60
2012,10,02,10,40,10.60
2012,10,02,10,41,10.60
2012,10,02,10,42,10.60
2012,10,02,10,43,10.60
2012,10,02,10,44,10.60
2012,10,02,10,45,10.60
2012,10,02,10,46,10.50
2012,10,02,10,47,10.40
2012,10,02,10,48,10.40
2012,10,02,10,49,10.40
2012,10,02,10,50,10.40
2012,10,02,10,51,10.40
2012,10,02,10,52,10.40
2012,10,02,10,53,10.40
2012,10,02,10,54,10.30
2012,10,02,10,55,10.30
2012,10,02,10,56,10.20
2012,10,02,10,57,10.20
2012,10,02,10,58,10.20
2012,10,02,10,59,10.30
2012,10,02,11,00,10.30
2012,10,02,11,01,10.30
2012,10,02,11,02,10.30
2012,10,02,11,03,10.30
2012,10,02,11,04,10.30
2012,10,02,11,05,10.30
2012,10,02,11,06,10.30
2012,10,02,11,07,10.30
2012,10,02,11,08,10.30
2012,10,02,11,09,10.30
2012,10,02,11,10,10.30
2012,10,02,11,11,10.30
2012,10,02,11,12,10.30
2012,10,02,11,13,10.30
2012,10,02,11,14,10.40
2012,10,02,11,15,10.40
2012,10,02,11,16,10.40
2012,10,02,11,17,10.40
2012,10,02,11,18,10.40
2012,10,02,11,19,10.40
2012,10,02,11,20,10.40
2012,10,02,11,21,10.40
2012,10,02,11,22,10.60
2012,10,02,11,23,10.60
2012,10,02,11,24,10.60
2012,10,02,11,25,10.60
2012,10,02,11,26,10.60
2012,10,02,11,27,10.60
2012,10,02,11,28,10.60
2012,10,02,11,29,10.60
2012,10,02,11,30,10.60
2012,10,02,11,31,10.80
2012,10,02,11,32,10.80
2012,10,02,11,33,10.80
2012,10,02,11,34,10.80
2012,10,02,11,35,10.80
2012,10,02,11,36,10.80
2012,10,02,11,37,10.80
2012,10,02,11,38,10.80
2012,10,02,11,39,10.80
2012,10,02,11,40,10.80
2012,10,02,11,41,10.80
2012,10,02,11,42,10.90
2012,10,02,11,43,10.90
2012,10,02,11,44,11.00
2012,10,02,11,45,11.10
2012,10,02,11,46,11.10
2012,10,02,11,47,11.10
2012,10,02,11,48,11.10
2012,10,02,11,49,11.10
2012,10,02,11,50,11.10
2012,10,02,11,51,11.10
2012,10,02,11,52,11.10
2012,10,02,11,53,11.10
2012,10,02,11,54,11.10
2012,10,02,11,55,11.20
2012,10,02,11,56,11.20
2012,10,02,11,57,11.20
2012,10,02,11,58,11.10
2012,10,02,11,59,11.10
2012,10,02,12,00,11.10
2012,10,02,12,01,11.10
2012,10,02,12,02,11.10
2012,10,02,12,03,11.30
2012,10,02,12,04,11.40
2012,10,02,12,05,11.40
2012,10,02,12,06,11.40
2012,10,02,12,07,11.50
2012,10,02,12,08,11.60
2012,10,02,12,09,11.60
2012,10,02,12,10,11.70
2012,10,02,12,11,11.80
2012,10,02,12,12,11.80
2012,10,02,12,13,11.80
2012,10,02,12,14,11.70
2012,10,02,12,15,11.70
2012,10,02,12,16,11.70
2012,10,02,12,17,11.80
2012,10,02,12,18,11.80
2012,10,02,12,19,11.80
2012,10,02,12,20,11.80
2012,10,02,12,21,11.90
2012,10,02,12,22,11.90
2012,10,02,12,23,11.90
2012,10,02,12,24,12.00
2012,10,02,12,25,12.00
2012,10,02,12,26,12.00
2012,10,02,12,27,12.10
2012,10,02,12,28,12.00
2012,10,02,12,29,12.00
2012,10,02,12,30,12.00
2012,10,02,12,31,12.00
2012,10,02,12,32,12.10
2012,10,02,12,33,12.10
2012,10,02,12,34,12.10
2012,10,02,12,35,12.20
2012,10,02,12,36,12.20
2012,10,02,12,37,12.30
2012,10,02,12,38,12.30
2012,10,02,12,39,12.30
2012,10,02,12,40,12.30
2012,10,02,12,41,12.40
2012,10,02,12,42,12.40
2012,10,02,12,43,12.40
2012,10,02,12,44,12.40
2012,10,02,12,45,12.40
2012,10,02,12,46,12.40
2012,10,02,12,47,12.30
2012,10,02,12,48,12.30
2012,10,02,12,49,12.30
2012,10,02,12,50,12.30
2012,10,02,12,51,12.40
2012,10,02,12,52,12.50
2012,10,02,12,53,12.50
2012,10,02,12,54,12.60
2012,10,02,12,55,12.60
2012,10,02,12,56,12.70
2012,10,02,12,57,12.70
2012,10,02,12,58,12.60
2012,10,02,12,59,12.60
2012,10,02,13,00,12.50
2012,10,02,13,01,12.50
2012,10,02,13,02,12.60
2012,10,02,13,03,12.60
2012,10,02,13,04,12.60
2012,10,02,13,05,12.60
2012,10,02,13,06,12.60
2012,10,02,13,07,12.70
2012,10,02,13,08,12.80
2012,10,02,13,09,12.80
2012,10,02,13,10,12.90
2012,10,02,13,11,12.90
2012,10,02,13,12,12.90
2012,10,02,13,13,12.90
2012,10,02,13,14,12.80
2012,10,02,13,15,12.80
2012,10,02,13,16,12.80
2012,10,02,13,17,12.80
2012,10,02,13,18,12.80
2012,10,02,13,19,12.80
2012,10,02,13,20,12.80
2012,10,02,13,21,12.80
2012,10,02,13,22,12.80
2012,10,02,13,23,12.90
2012,10,02,13,24,13.00
2012,10,02,13,25,13.00
2012,10,02,13,26,13.10
2012,10,02,13,27,13.20
2012,10,02,13,28,13.30
2012,10,02,13,29,13.40
2012,10,02,13,30,13.50
2012,10,02,13,31,13.50
2012,10,02,13,32,13.60
2012,10,02,13,33,13.60
2012,10,02,13,34,13.60
2012,10,02,13,35,13.70
2012,10,02,13,36,13.70
2012,10,02,13,37,13.70
2012,10,02,13,38,13.80
2012,10,02,13,39,13.90
2012,10,02,13,40,14.00
2012,10,02,13,41,14.10
2012,10,02,13,42,14.10
2012,10,02,13,43,14.00
2012,10,02,13,44,14.00
2012,10,02,13,45,14.00
2012,10,02,13,46,13.90
2012,10,02,13,47,13.80
2012,10,02,13,48,13.70
2012,10,02,13,49,13.60
2012,10,02,13,50,13.60
2012,10,02,13,51,13.40
2012,10,02,13,52,13.30
2012,10,02,13,53,13.20
2012,10,02,13,54,13.20
2012,10,02,13,55,13.20
2012,10,02,13,56,13.30
2012,10,02,13,57,13.30
2012,10,02,13,58,13.40
2012,10,02,13,59,13.50
2012,10,02,14,00,13.50
2012,10,02,14,01,13.60
2012,10,02,14,02,13.60
2012,10,02,14,03,13.60
2012,10,02,14,04,13.60
2012,10,02,14,05,13.70
2012,10,02,14,06,13.80
2012,10,02,14,07,13.90
2012,10,02,14,08,13.90
2012,10,02,14,09,14.00
2012,10,02,14,10,14.10
2012,10,02,14,11,14.10
2012,10,02,14,12,14.10
2012,10,02,14,13,14.10
2012,10,02,14,14,14.10
2012,10,02,14,15,14.10
2012,10,02,14,16,14.00
2012,10,02,14,17,14.00
2012,10,02,14,18,13.90
2012,10,02,14,19,13.90
2012,10,02,14,20,14.00
2012,10,02,14,21,14.00
2012,10,02,14,22,14.10
2012,10,02,14,23,14.10
2012,10,02,14,24,14.20
2012,10,02,14,25,14.20
2012,10,02,14,26,14.20
2012,10,02,14,27,14.20
2012,10,02,14,28,14.20
2012,10,02,14,29,14.30
2012,10,02,14,30,14.20
2012,10,02,14,31,14.20
2012,10,02,14,32,14.20
2012,10,02,14,33,14.20
2012,10,02,14,34,14.10
2012,10,02,14,35,14.10
2012,10,02,14,36,14.10
2012,10,02,14,37,14.20
2012,10,02,14,38,14.10
2012,10,02,14,39,14.20
2012,10,02,14,40,14.20
2012,10,02,14,41,14.20
2012,10,02,14,42,14.20
2012,10,02,14,43,14.20
2012,10,02,14,44,14.20
2012,10,02,14,45,14.20
2012,10,02,14,46,14.40
2012,10,02,14,47,14.50
2012,10,02,14,48,14.50
2012,10,02,14,49,14.60
2012,10,02,14,50,14.60
2012,10,02,14,51,14.50
2012,10,02,14,52,14.40
2012,10,02,14,53,14.50
2012,10,02,14,54,14.50
2012,10,02,14,55,14.60
2012,10,02,14,56,14.60
2012,10,02,14,57,14.70
2012,10,02,14,58,14.70
2012,10,02,14,59,14.70
2012,10,02,15,00,14.70
2012,10,02,15,01,14.80
2012,10,02,15,02,14.80
2012,10,02,15,03,14.80
2012,10,02,15,04,14.70
2012,10,02,15,05,14.70
2012,10,02,15,06,14.60
2012,10,02,15,07,14.60
2012,10,02,15,08,14.60
2012,10,02,15,09,14.60
2012,10,02,15,10,14.50
2012,10,02,15,11,14.50
2012,10,02,15,12,14.50
2012,10,02,15,13,14.40
2012,10,02,15,14,14.40
2012,10,02,15,15,14.30
2012,10,02,15,16,14.30
2012,10,02,15,17,14.20
2012,10,02,15,18,14.20
2012,10,02,15,19,14.20
2012,10,02,15,20,14.40
2012,10,02,15,21,14.40
2012,10,02,15,22,14.40
2012,10,02,15,23,14.40
2012,10,02,15,24,14.40
2012,10,02,15,25,14.50
2012,10,02,15,26,14.50
2012,10,02,15,27,14.60
2012,10,02,15,28,14.60
2012,10,02,15,29,14.60
2012,10,02,15,30,14.60
2012,10,02,15,31,14.70
2012,10,02,15,32,14.70
2012,10,02,15,33,14.80
2012,10,02,15,34,14.90
2012,10,02,15,35,15.10
2012,10,02,15,36,15.10
2012,10,02,15,37,15.10
2012,10,02,15,38,15.10
2012,10,02,15,39,15.10
2012,10,02,15,40,15.20
2012,10,02,15,41,15.20
2012,10,02,15,42,15.30
2012,10,02,15,43,15.30
2012,10,02,15,44,15.30
2012,10,02,15,45,15.20
2012,10,02,15,46,15.20
2012,10,02,15,47,15.20
2012,10,02,15,48,15.20
2012,10,02,15,49,15.10
2012,10,02,15,50,15.00
2012,10,02,15,51,14.90
2012,10,02,15,52,14.90
2012,10,02,15,53,14.90
2012,10,02,15,54,14.90
2012,10,02,15,55,14.90
2012,10,02,15,56,14.90
2012,10,02,15,57,14.90
2012,10,02,15,58,14.90
2012,10,02,15,59,14.90
2012,10,02,16,00,14.90
2012,10,02,16,01,14.90
2012,10,02,16,02,14.90
2012,10,02,16,03,15.00
2012,10,02,16,04,15.00
2012,10,02,16,05,15.00
2012,10,02,16,06,15.00
2012,10,02,16,07,15.10
2012,10,02,16,08,15.00
2012,10,02,16,09,14.90
2012,10,02,16,10,14.70
2012,10,02,16,11,14.60
2012,10,02,16,12,14.60
2012,10,02,16,13,14.60
2012,10,02,16,14,14.60
2012,10,02,16,15,14.50
2012,10,02,16,16,14.30
2012,10,02,16,17,14.10
2012,10,02,16,18,14.00
2012,10,02,16,19,14.10
2012,10,02,16,20,14.10
2012,10,02,16,21,14.10
2012,10,02,16,22,14.10
2012,10,02,16,23,14.20
2012,10,02,16,24,14.20
2012,10,02,16,25,14.40
2012,10,02,16,26,14.50
2012,10,02,16,27,14.50
2012,10,02,16,28,14.60
2012,10,02,16,29,14.60
2012,10,02,16,30,14.70
2012,10,02,16,31,14.70
2012,10,02,16,32,14.70
2012,10,02,16,33,14.70
2012,10,02,16,34,14.80
2012,10,02,16,35,14.80
2012,10,02,16,36,14.80
2012,10,02,16,37,14.90
2012,10,02,16,38,14.80
2012,10,02,16,39,14.70
2012,10,02,16,40,14.60
2012,10,02,16,41,14.50
2012,10,02,16,42,14.50
2012,10,02,16,43,14.40
2012,10,02,16,44,14.30
2012,10,02,16,45,14.30
2012,10,02,16,46,14.20
2012,10,02,16,47,14.30
2012,10,02,16,48,14.40
2012,10,02,16,49,14.60
2012,10,02,16,50,14.60
2012,10,02,16,51,14.70
2012,10,02,16,52,14.80
2012,10,02,16,53,14.80
2012,10,02,16,54,14.80
2012,10,02,16,55,14.80
2012,10,02,16,56,14.80
2012,10,02,16,57,14.80
2012,10,02,16,58,14.80
2012,10,02,16,59,14.70
2012,10,02,17,00,14.70
2012,10,02,17,01,14.70
2012,10,02,17,02,14.70
2012,10,02,17,03,14.70
2012,10,02,17,04,14.70
2012,10,02,17,05,14.70
2012,10,02,17,06,14.70
2012,10,02,17,07,14.60
2012,10,02,17,08,14.50
2012,10,02,17,09,14.40
2012,10,02,17,10,14.40
2012,10,02,17,11,14.50
2012,10,02,17,12,14.50
2012,10,02,17,13,14.50
2012,10,02,17,14,14.50
2012,10,02,17,15,14.50
2012,10,02,17,16,14.50
2012,10,02,17,17,14.50
2012,10,02,17,18,14.60
2012,10,02,17,19,14.60
2012,10,02,17,20,14.60
2012,10,02,17,21,14.70
2012,10,02,17,22,14.70
2012,10,02,17,23,14.70
2012,10,02,17,24,14.70
2012,10,02,17,25,14.70
2012,10,02,17,26,14.60
2012,10,02,17,27,14.60
2012,10,02,17,28,14.60
2012,10,02,17,29,14.60
2012,10,02,17,30,14.60
2012,10,02,17,31,14.60
2012,10,02,17,32,14.60
2012,10,02,17,33,14.60
2012,10,02,17,34,14.60
2012,10,02,17,35,14.60
2012,10,02,17,36,14.60
2012,10,02,17,37,14.50
2012,10,02,17,38,14.40
2012,10,02,17,39,14.30
2012,10,02,17,40,14.20
2012,10,02,17,41,14.20
2012,10,02,17,42,14.20